Погода в Карансебеше

Румыния     45°24′36″N   22°13′08″E
темп.,
°C
ветер,
м/с
пор.,
м/с
влажн.,
%
обл.,
%
осадки,
мм/ч
давл.,
гПа
погр.,
м
16 апреля, пт
пт1600:00+1ю129675 0.2 102242
03:000ю1195100 0.5 102231
06:000ююз119996 0.5 102276
09:00+2юз239299 0.8 1022501
12:00+4з237985 0.5 1023952
15:00+5з127199 0.8 1022848
18:00+6сз116658 0.1 1021752
21:00+1всв219012 0.1 102212
17 апреля, сб
сб1700:00−1в2292100 0.0 102231
03:00−1всв2288100 0.0 102129
06:000всв2287100 0.0 102026
09:00+5всв126562 0.0 1019241
12:00+11сз1148100 0.0 10171017
15:00+12сз2347100 0.0 10151443
18:00+10зюз1270100 0.0 1015119
21:00+6юв1194100 0.9 101612
18 апреля, вс
вс1800:00+6вюв1195100 0.5 101514
03:00+5всв1194100 0.6 101413
06:00+5в1195100 0.7 101325
09:00+6ю0097100 3.4 101366
12:00+6з1194100 4.3 1014259
15:00+6зсз1192100 6.8 1014325
18:00+6юз1197100 1.8 1015106
21:00+5ю1197100 3.7 101662
19 апреля, пн
пн1900:00+5ююв0098100 1.1 101677
03:00+5ююв0198100 1.4 101450
06:00+4юв1198100 0.4 101451
09:00+5з0096100 0.6 1013110
12:00+5зсз1294100 0.1 1012301
15:00+7сз1287100 0.3 1011558
18:00+7ссз1290100 0.1 1010275
21:00+5зсз1194100 0.3 101028
20 апреля, вт
вт2000:00+5зюз1298100 0.4 1010110
03:00+5зюз14100100 2.7 1009400
06:00+5з3699100 2.9 1009845
09:00+5зюз2699100 6.8 1010851
12:00+6зюз2699100 2.9 1011517
15:00+6зюз2599100 5.6 1012406
18:00+7зюз249697 1.9 1012241
21:00+4ююв11966 2.5 101413